Location: Medlow Airstrip Trail, Medlow Bath NSW 2780, Australia
(33.6682°S, 150.3233°E)
Time: 23:55:35
(UTC+11:00)

LightSail 2 - Pass Details

Date: 26 August 2019
Orbit: 707 x 722 km, 24.0° (Epoch: 22 October)

Event Time Altitude Azimuth Distance (km) Brightness Sun altitude
Exits shadow 04:52:52 10° 337° (NNW) 2,226 7.5 -20.0°
Reaches altitude 10° 04:53:02 10° 339° (NNW) 2,187 7.4 -19.9°
Maximum altitude 04:56:11 16° 17° (NNE) 1,802 7.4 -19.3°
Drops below altitude 10° 04:59:22 10° 55° (NE) 2,200 8.5 -18.6°
Sets 05:02:40 0° 75° (ENE) 3,127 10.0 -17.9°
